Theta_e
321 322 322 322 322 323 321 321 321 320 321 321 321 320 319 320 320 320 321 321 321 322 323 324 324 324 324 325 330 330 327 322 324 324 323 328 330 331 329 330 330 328 327 326
320 321 319 319 319 321 322 322 322 320 320 320 320 320 318 318 318 319 320 320 320 320 320 319 321 324 324 323 323 322 323 322 321 323 322 323 324 326 327 329 329 330 328 328
320 319 318 319 320 321 321 322 320 321 320 320 319 320 319 318 318 318 318 319 319 320 320 320 319 318 322 323 323 323 322 323 324 324 326 328 329 329 330 328 327 326 328 329
319 318 319 318 319 319 321 319 320 320 321 321 319 320 318 317 317 317 318 319 319 319 318 319 319 319 319 320 320 319 319 320 322 323 331 331 328 326 324 323 322 322 324 327
318 318 318 320 319 318 319 318 319 320 320 320 320 318 317 317 317 316 317 318 318 318 318 319 319 319 319 319 319 319 323 322 320 322 325 329 331 329 327 325 326 325 325 324
316 314 316 317 317 318 319 320 319 320 320 323 319 319 318 316 316 316 317 318 318 318 318 317 317 317 316 316 317 317 318 320 321 319 320 325 330 329 330 327 328 328 326 324
316 314 313 314 318 318 319 320 322 323 322 322 318 319 318 316 316 316 316 317 317 316 316 316 314 312 312 314 313 312 314 315 316 318 320 323 327 330 330 328 327 328 328 327
317 316 315 313 317 319 319 320 321 324 322 318 314 316 316 316 316 316 316 316 316 316 315 313 312 311 312 313 314 313 310 312 315 317 318 322 323 326 329 330 330 329 328 327
316 317 313 313 313 315 317 320 318 319 312 315 315 316 315 313 313 314 314 315 314 313 314 313 312 311 311 312 311 311 313 311 310 314 317 319 322 324 325 326 329 329 329 329
316 317 315 315 315 315 315 315 317 318 321 317 314 314 313 314 314 312 312 313 314 313 312 312 312 312 312 311 311 311 310 313 311 310 314 317 319 322 323 325 326 327 328 329
315 315 315 316 317 317 317 319 317 317 318 317 315 312 314 313 313 312 313 313 311 311 311 311 310 309 310 311 311 311 311 311 312 310 310 313 316 320 322 324 324 324 325 326
315 315 315 315 311 311 315 316 317 317 317 314 315 314 313 311 312 314 313 311 310 310 311 311 310 309 309 309 309 310 311 311 310 310 309 310 313 314 320 322 323 324 325 325
314 315 315 314 313 312 316 315 315 315 315 316 315 312 312 311 312 314 312 311 310 309 310 310 309 307 307 307 308 309 309 311 311 310 310 310 310 315 315 319 322 323 324 325
313 314 313 314 314 314 317 316 315 316 316 317 316 314 313 312 311 312 311 310 309 309 309 308 306 306 306 307 308 307 308 309 311 311 311 310 310 311 318 319 320 322 325 326
312 312 313 312 310 314 314 315 315 317 315 316 315 314 313 312 312 310 310 310 309 307 307 305 305 304 304 305 305 306 307 308 309 311 310 311 310 309 310 313 317 319 321 325
312 312 311 310 311 311 313 314 315 315 315 315 315 313 312 313 311 309 308 308 307 304 302 302 302 302 302 302 303 303 304 306 307 310 310 310 310 309 309 310 310 311 312 313
311 311 311 311 310 309 306 309 313 313 314 314 315 313 312 310 307 304 302 301 300 300 300 299 298 299 300 301 301 302 303 305 306 309 310 309 309 310 308 309 309 310 310 309
311 310 310 305 311 312 308 307 311 312 312 312 312 312 304 302 302 298 296 296 296 295 296 296 296 297 297 298 299 301 302 304 306 308 309 309 308 309 308 307 308 309 309 309
310 309 307 309 311 307 306 303 307 308 306 298 301 298 297 297 300 295 293 292 291 291 293 294 294 294 294 295 296 298 301 302 304 306 307 306 307 307 307 307 307 308 308 308
309 309 307 305 307 303 303 300 303 307 304 293 294 292 292 295 301 297 292 291 291 290 289 290 292 294 294 295 295 296 297 299 302 304 304 305 304 305 305 305 306 307 307 307
310 309 308 304 303 304 298 297 301 301 299 289 289 287 287 290 288 288 291 291 289 288 288 288 289 291 292 292 292 294 294 295 296 300 302 303 303 303 303 304 305 306 306 306
309 310 308 307 309 306 289 295 301 290 286 284 284 283 283 283 283 283 284 284 286 287 288 288 288 288 289 290 290 290 292 292 293 296 299 300 301 302 302 303 303 303 303 302
303 305 304 303 300 287 284 283 282 283 283 281 280 280 279 279 279 279 279 280 280 282 283 284 284 285 286 287 287 287 288 289 291 292 295 296 296 298 299 300 301 301 301 301
296 293 298 296 292 285 282 280 279 280 279 278 278 277 277 276 277 278 278 277 277 277 279 281 282 283 283 283 284 285 286 287 290 292 293 293 294 295 297 297 298 299 299 300
289 290 293 290 288 285 281 278 277 277 276 277 278 277 276 275 275 275 275 276 276 276 277 278 279 280 280 281 282 283 284 285 287 289 292 292 293 294 295 296 297 298 299 299
279 279 291 292 280 282 278 276 277 277 277 276 275 275 275 273 273 272 273 274 274 274 275 276 277 277 278 278 280 280 282 283 284 286 289 291 291 292 293 294 296 297 297 297
Wind_Speed
11 6 18 17 13 13 14 14 11 9 3 2 6 11 10 22 23 20 19 23 24 24 21 20 21 23 26 25 28 28 28 24 25 29 29 33 36 34 32 31 30 30 31 31
7 19 21 8 15 16 17 17 18 10 7 2 7 14 13 20 22 24 25 27 28 27 28 29 27 27 29 30 29 30 31 28 31 31 30 32 35 36 35 35 33 32 33 33
15 14 17 14 16 16 18 17 14 13 7 2 5 15 13 15 32 38 38 36 31 30 30 29 24 25 30 31 32 30 34 33 34 34 33 33 32 34 37 39 39 38 36 35
14 21 13 18 19 17 17 10 9 10 3 6 3 10 8 8 14 14 12 17 25 28 24 24 26 26 23 23 28 29 28 31 36 36 36 38 39 39 40 39 36 38 38 38
7 9 21 16 25 10 16 5 8 12 10 4 12 5 8 3 10 10 17 18 18 17 13 3 3 7 9 16 19 18 24 29 29 32 37 41 44 45 42 41 41 38 38 37
7 1 4 11 10 10 2 7 7 5 4 8 23 8 21 12 12 12 13 8 2 9 5 3 3 5 4 7 13 15 21 28 32 32 34 39 46 47 46 44 43 43 41 40
8 5 2 2 2 3 7 8 4 6 6 11 10 10 18 10 9 4 6 8 3 8 6 6 4 9 10 10 9 9 15 22 24 29 33 36 42 46 47 46 44 44 44 43
12 10 16 9 5 7 12 13 5 5 5 6 7 9 8 2 5 7 2 2 5 7 9 6 12 14 12 13 15 15 13 13 20 24 28 34 35 42 47 47 45 44 42 43
10 9 3 14 7 10 2 10 5 1 1 2 5 6 5 8 6 3 1 7 15 14 7 8 12 16 14 21 20 22 19 17 15 19 25 29 34 36 39 42 43 41 42 40
9 5 6 7 8 10 6 9 4 2 5 3 4 5 4 6 9 8 11 16 9 6 8 12 16 20 21 23 24 25 24 21 20 18 20 26 30 34 36 37 39 40 41 39
9 4 4 4 7 8 6 4 7 6 3 1 1 4 4 7 15 10 10 8 11 11 11 14 15 18 19 22 24 24 26 25 23 22 19 21 26 30 33 35 37 37 36 38
10 3 4 9 2 4 5 4 8 3 4 2 3 5 6 10 10 15 10 11 11 13 12 12 17 19 21 29 30 30 28 28 27 24 23 21 22 25 29 32 35 34 34 33
12 4 4 4 2 3 5 9 11 6 2 6 4 4 4 10 9 11 8 10 9 14 14 12 18 25 27 31 33 33 30 28 30 28 24 24 22 22 24 26 28 29 31 31
21 4 5 8 4 7 6 10 8 5 3 2 8 6 1 7 8 4 10 11 11 10 14 19 25 27 30 31 34 36 36 30 26 32 28 25 23 22 20 20 23 23 22 25
9 6 5 5 7 6 9 13 14 13 10 6 16 19 14 7 4 6 9 10 13 16 17 23 26 29 32 34 35 37 37 37 31 28 30 28 26 23 22 19 19 19 20 23
6 1 6 2 1 6 6 16 18 22 22 14 18 18 5 14 5 15 18 16 16 19 23 24 28 33 35 38 40 40 39 39 38 34 31 31 29 28 26 25 23 22 22 22
8 5 5 6 6 6 5 11 13 14 18 15 17 20 5 5 12 17 16 15 15 17 23 29 32 35 38 39 41 42 42 40 39 36 33 30 31 29 28 28 27 25 25 24
9 8 2 3 6 8 5 6 16 16 11 8 11 14 11 7 9 14 14 15 19 23 26 31 35 38 39 40 42 42 41 39 36 35 34 33 33 30 28 30 30 28 26 26
7 4 3 4 4 5 3 3 6 7 2 10 7 10 13 10 6 10 13 22 22 23 29 32 35 38 41 43 44 45 43 41 37 35 33 34 32 31 30 30 30 30 28 27
1 3 4 2 3 6 1 2 6 6 3 10 11 11 13 16 2 3 23 29 29 30 32 35 38 40 43 45 45 46 45 43 40 35 35 33 31 29 29 29 28 28 28 26
5 4 6 4 3 3 3 10 8 5 2 8 9 9 11 4 6 23 29 30 31 33 36 37 41 44 44 45 45 44 44 44 41 38 34 30 29 26 24 26 26 25 24 23
6 7 3 3 3 6 10 3 3 4 11 8 8 8 9 12 18 21 27 32 36 38 40 42 45 46 45 44 44 44 43 42 42 40 35 30 26 26 22 23 22 21 20 19
3 3 5 2 2 7 16 20 12 9 7 8 7 9 12 16 19 24 28 31 30 38 41 41 43 45 44 41 40 43 41 39 41 39 36 30 25 23 20 19 19 19 18 17
2 4 4 5 5 9 13 13 10 8 6 7 9 13 14 17 22 28 30 29 33 35 40 41 42 43 44 40 38 37 38 36 36 37 35 29 25 21 19 19 19 18 18 18
1 3 5 5 8 12 10 7 6 6 7 10 13 16 17 20 21 23 27 31 34 37 38 37 36 38 39 38 36 34 33 33 33 32 30 27 24 21 21 20 20 20 19 18
5 2 3 3 7 5 8 2 6 9 12 14 17 19 18 18 19 21 26 27 31 34 34 34 32 32 33 34 33 32 30 30 30 30 26 23 22 20 21 21 20 19 18 17
Wind_Direction
194 206 223 218 219 243 265 270 263 266 276 211 236 266 272 280 276 269 266 251 255 264 262 261 261 257 256 248 238 230 235 246 245 243 241 233 236 239 237 236 237 248 249 251
188 224 227 231 229 233 247 256 263 278 121 131 282 274 276 282 282 272 268 264 260 261 261 258 254 253 248 256 252 241 236 239 251 247 251 246 243 244 248 250 245 242 249 251
213 232 220 225 234 240 244 242 253 269 291 244 295 275 265 253 250 255 252 250 252 257 261 260 258 257 253 251 260 255 244 242 243 253 252 251 248 246 244 247 249 251 250 250
226 239 238 215 231 219 242 230 254 269 315 264 215 287 225 298 292 286 283 250 238 254 262 263 259 259 264 260 264 267 267 261 252 246 244 247 251 250 254 255 255 254 254 253
198 232 217 233 225 222 254 225 228 247 254 267 253 272 261 288 272 269 270 253 254 263 269 233 215 255 245 252 258 271 269 265 266 257 248 247 248 256 258 260 256 252 254 257
226 89 293 255 233 227 266 254 261 255 228 237 241 198 277 256 253 252 254 216 194 93 63 36 316 308 323 285 275 270 259 252 257 262 257 247 248 252 252 255 254 253 253 257
176 180 233 42 170 279 235 182 226 205 187 235 173 193 237 296 288 292 276 279 329 45 25 54 50 7 3 360 344 314 275 269 261 256 256 252 247 250 254 257 257 255 254 253
208 211 198 156 223 201 211 223 213 227 189 224 139 224 229 95 230 246 255 301 42 63 103 74 12 353 0 8 0 346 332 300 271 264 254 254 253 249 249 253 255 257 258 260
184 220 127 174 153 152 185 207 254 159 311 87 197 243 282 248 265 43 300 80 102 87 45 358 339 348 344 351 351 348 340 338 307 274 261 255 255 255 254 255 252 253 255 257
180 178 185 160 169 189 178 151 205 247 138 204 229 222 227 161 130 89 86 99 90 69 21 2 360 5 2 354 348 341 339 335 334 315 279 258 255 253 257 258 254 252 252 253
179 178 154 139 202 179 186 183 207 182 212 297 81 249 94 83 125 122 119 101 42 32 27 15 19 360 355 353 348 342 338 331 332 330 311 282 260 254 253 254 258 257 254 250
207 166 166 188 23 307 283 221 196 190 225 275 100 268 86 117 119 121 106 66 30 20 19 21 7 3 360 358 358 353 344 334 326 326 326 306 283 263 256 257 257 259 259 258
172 175 130 176 337 284 230 221 232 204 42 194 143 281 81 130 137 151 121 51 29 4 17 19 1 358 355 354 355 353 345 340 333 324 321 322 307 285 267 258 260 260 259 257
155 149 198 210 176 143 199 206 212 165 165 180 217 259 114 185 186 76 57 26 359 30 19 358 355 354 352 349 349 347 346 335 331 326 323 315 315 308 284 268 260 260 259 257
169 201 204 236 117 186 193 196 196 209 216 185 234 240 245 253 4 54 344 3 48 27 4 354 351 350 350 347 344 342 341 341 331 317 315 317 308 302 300 288 274 266 260 257
181 219 171 297 178 246 234 198 197 204 220 234 256 265 246 308 32 39 32 34 13 355 357 352 345 343 344 342 338 337 335 334 334 319 309 305 306 297 291 289 287 282 276 269
166 148 154 201 128 68 308 229 211 222 229 221 241 257 297 355 48 35 49 41 20 358 345 341 339 337 336 336 335 333 331 330 327 323 313 304 300 294 288 284 283 283 282 278
147 137 135 140 125 215 256 156 205 212 229 245 262 286 45 48 47 81 56 32 3 350 338 335 333 332 334 334 331 327 327 327 325 322 315 305 296 289 283 280 278 279 279 277
158 132 122 159 193 307 171 171 143 166 168 14 4 31 13 345 161 81 26 360 352 336 331 328 329 328 329 331 329 326 323 324 323 322 317 311 300 293 283 278 276 275 275 275
101 200 158 140 185 198 28 27 355 110 211 18 33 31 359 342 207 119 334 339 334 332 331 328 327 326 326 326 326 324 323 321 319 317 315 315 307 298 290 282 277 275 275 274
152 141 191 168 207 293 347 322 333 111 196 67 44 31 10 18 336 303 317 323 324 325 324 323 322 323 323 324 323 322 320 320 316 312 309 309 306 296 289 283 277 272 271 271
159 163 169 112 186 255 352 331 177 87 80 72 43 18 346 321 315 314 313 318 321 320 320 320 320 320 321 322 321 319 318 317 314 310 307 306 305 295 287 280 274 271 266 264
134 162 158 122 162 82 58 91 86 88 88 35 12 347 334 321 316 316 320 321 321 317 318 319 318 318 319 321 319 316 318 316 313 311 307 306 304 296 287 275 269 266 262 254
69 359 98 129 120 118 108 88 70 53 41 355 339 332 328 321 322 319 321 321 321 321 321 321 319 318 319 322 321 318 318 316 312 309 307 306 300 297 286 274 263 256 258 253
360 2 120 84 112 115 101 74 36 32 359 342 336 334 330 326 324 325 321 321 322 322 323 323 322 319 320 323 323 323 321 318 313 309 306 303 295 290 281 269 259 250 244 240
6 138 160 161 121 94 99 32 353 1 348 343 340 339 339 337 329 327 326 328 326 327 327 327 325 322 325 328 329 327 325 321 317 311 307 300 290 281 272 262 248 242 236 233